Time,TemperatureF,DewpointF,PressureIn,WindDirection,WindDirectionDegrees,WindSpeedMPH,WindSpeedGustMPH,Humidity,HourlyPrecipIn,Conditions,Clouds,dailyrainin,SoftwareType,DateUTC
2013-10-06 00:07:00,68.7,62.7,29.59,SSE,157,0.0,0.0,81,0.00,,,0.00,WUHU21623XXSP,2013-10-06 04:07:00,
2013-10-06 00:12:00,68.5,62.5,29.59,SSE,157,0.0,0.0,81,0.00,,,0.00,WUHU21623XXSP,2013-10-06 04:12:00,
2013-10-06 00:13:00,68.5,62.5,29.59,SSE,157,0.0,0.0,81,0.00,,,0.00,WUHU21623XXSP,2013-10-06 04:13:00,
2013-10-06 00:23:00,68.4,62.3,29.59,SSE,157,0.0,0.0,81,0.00,,,0.00,WUHU21623XXSP,2013-10-06 04:23:00,
2013-10-06 00:28:00,68.2,62.2,29.58,SSE,157,0.0,0.0,81,0.00,,,0.00,WUHU21623XXSP,2013-10-06 04:28:00,
2013-10-06 00:33:00,68.4,62.7,29.58,SSE,157,0.0,0.0,82,0.00,,,0.00,WUHU21623XXSP,2013-10-06 04:33:00,
2013-10-06 00:39:00,68.4,62.7,29.58,SSE,157,0.0,0.0,82,0.00,,,0.00,WUHU21623XXSP,2013-10-06 04:39:00,
2013-10-06 00:44:00,68.5,62.8,29.58,SSE,157,0.0,0.0,82,0.00,,,0.00,WUHU21623XXSP,2013-10-06 04:44:00,
2013-10-06 00:49:00,68.5,62.8,29.58,SSE,157,0.0,0.0,82,0.00,,,0.00,WUHU21623XXSP,2013-10-06 04:49:00,
2013-10-06 00:55:00,68.5,62.8,29.58,SSE,157,0.0,0.0,82,0.00,,,0.00,WUHU21623XXSP,2013-10-06 04:55:00,
2013-10-06 01:00:00,68.5,62.8,29.58,SSE,157,0.0,0.0,82,0.00,,,0.00,WUHU21623XXSP,2013-10-06 05:00:00,
2013-10-06 01:07:00,68.4,62.7,29.58,SSE,157,0.0,0.0,82,0.00,,,0.00,WUHU21623XXSP,2013-10-06 05:07:00,
2013-10-06 01:12:00,68.2,62.8,29.58,SSE,157,0.0,0.0,83,0.00,,,0.00,WUHU21623XXSP,2013-10-06 05:12:00,
2013-10-06 01:20:00,68.2,62.8,29.58,SSE,157,0.0,0.0,83,0.00,,,0.00,WUHU21623XXSP,2013-10-06 05:20:00,
2013-10-06 01:25:00,68.2,62.8,29.57,SSE,157,0.0,0.0,83,0.00,,,0.00,WUHU21623XXSP,2013-10-06 05:25:00,
2013-10-06 01:31:00,67.8,62.5,29.57,SSE,157,0.0,0.0,83,0.00,,,0.00,WUHU21623XXSP,2013-10-06 05:31:00,
2013-10-06 01:41:00,67.8,62.8,29.57,SSE,157,0.0,0.0,84,0.00,,,0.00,WUHU21623XXSP,2013-10-06 05:41:00,
2013-10-06 01:47:00,67.6,62.6,29.57,SSE,157,0.0,0.0,84,0.00,,,0.00,WUHU21623XXSP,2013-10-06 05:47:00,
2013-10-06 01:52:00,67.6,63.0,29.57,SSE,157,0.0,0.0,85,0.00,,,0.00,WUHU21623XXSP,2013-10-06 05:52:00,
2013-10-06 01:57:00,67.3,62.3,29.57,SSE,157,0.0,0.0,84,0.00,,,0.00,WUHU21623XXSP,2013-10-06 05:57:00,
2013-10-06 02:02:00,66.9,61.9,29.57,SSE,157,0.0,0.0,84,0.00,,,0.00,WUHU21623XXSP,2013-10-06 06:02:00,
2013-10-06 02:08:00,66.6,61.9,29.57,SSE,157,0.0,0.0,85,0.00,,,0.00,WUHU21623XXSP,2013-10-06 06:08:00,
2013-10-06 02:15:00,66.4,62.0,29.56,SSE,157,0.0,0.0,86,0.00,,,0.00,WUHU21623XXSP,2013-10-06 06:15:00,
2013-10-06 02:24:00,66.0,61.7,29.56,SSE,157,0.0,0.0,86,0.00,,,0.00,WUHU21623XXSP,2013-10-06 06:24:00,
2013-10-06 02:29:00,65.8,61.5,29.56,SSE,157,0.0,0.0,86,0.00,,,0.00,WUHU21623XXSP,2013-10-06 06:29:00,
2013-10-06 02:34:00,65.7,61.3,29.56,SSE,157,0.0,0.0,86,0.00,,,0.00,WUHU21623XXSP,2013-10-06 06:34:00,
2013-10-06 02:40:00,65.5,61.5,29.55,SSE,157,0.0,0.0,87,0.00,,,0.00,WUHU21623XXSP,2013-10-06 06:40:00,
2013-10-06 02:45:00,65.3,61.3,29.55,SSE,157,0.0,0.0,87,0.00,,,0.00,WUHU21623XXSP,2013-10-06 06:45:00,
2013-10-06 02:50:00,65.1,61.2,29.55,SSE,157,0.0,0.0,87,0.00,,,0.00,WUHU21623XXSP,2013-10-06 06:50:00,
2013-10-06 02:55:00,64.9,61.3,29.55,SSE,157,0.0,0.0,88,0.00,,,0.00,WUHU21623XXSP,2013-10-06 06:55:00,
2013-10-06 03:00:00,64.9,61.3,29.55,SSE,157,0.0,0.0,88,0.00,,,0.00,WUHU21623XXSP,2013-10-06 07:00:00,
2013-10-06 03:08:00,64.6,61.0,29.55,SSE,157,0.0,0.0,88,0.00,,,0.00,WUHU21623XXSP,2013-10-06 07:08:00,
2013-10-06 03:13:00,64.6,61.3,29.55,SSE,157,0.0,0.0,89,0.00,,,0.00,WUHU21623XXSP,2013-10-06 07:13:00,
2013-10-06 03:19:00,64.6,61.3,29.55,SSE,157,0.0,0.0,89,0.00,,,0.00,WUHU21623XXSP,2013-10-06 07:19:00,
2013-10-06 03:24:00,64.2,61.0,29.55,SSE,157,0.0,0.0,89,0.00,,,0.00,WUHU21623XXSP,2013-10-06 07:24:00,
2013-10-06 03:29:00,64.0,60.8,29.55,SSE,157,0.0,0.0,89,0.00,,,0.00,WUHU21623XXSP,2013-10-06 07:29:00,
2013-10-06 03:34:00,64.0,60.8,29.54,SSE,157,0.0,0.0,89,0.00,,,0.00,WUHU21623XXSP,2013-10-06 07:34:00,
2013-10-06 03:39:00,64.2,61.3,29.54,SSE,157,0.0,0.0,90,0.00,,,0.00,WUHU21623XXSP,2013-10-06 07:39:00,
2013-10-06 03:44:00,64.2,61.3,29.54,SSE,157,0.0,0.0,90,0.00,,,0.00,WUHU21623XXSP,2013-10-06 07:44:00,
2013-10-06 03:50:00,63.7,60.8,29.54,SSE,157,0.0,0.0,90,0.00,,,0.00,WUHU21623XXSP,2013-10-06 07:50:00,
2013-10-06 03:55:00,63.7,61.1,29.54,SSE,157,0.0,0.0,91,0.00,,,0.00,WUHU21623XXSP,2013-10-06 07:55:00,
2013-10-06 04:00:00,63.7,61.1,29.54,SSE,157,0.0,0.0,91,0.00,,,0.00,WUHU21623XXSP,2013-10-06 08:00:00,
2013-10-06 04:05:00,63.3,60.7,29.54,SSE,157,0.0,0.0,91,0.00,,,0.00,WUHU21623XXSP,2013-10-06 08:05:00,
2013-10-06 04:12:00,63.1,60.5,29.53,SSE,157,0.0,0.0,91,0.00,,,0.00,WUHU21623XXSP,2013-10-06 08:12:00,
2013-10-06 04:17:00,63.0,60.4,29.53,SSE,157,0.0,0.0,91,0.00,,,0.00,WUHU21623XXSP,2013-10-06 08:17:00,
2013-10-06 04:22:00,62.8,60.2,29.53,SSE,157,0.0,0.0,91,0.00,,,0.00,WUHU21623XXSP,2013-10-06 08:22:00,
2013-10-06 04:29:00,62.8,60.2,29.53,SSE,157,0.0,0.0,91,0.00,,,0.00,WUHU21623XXSP,2013-10-06 08:29:00,
2013-10-06 04:35:00,62.6,60.0,29.53,SSE,157,0.0,0.0,91,0.00,,,0.00,WUHU21623XXSP,2013-10-06 08:35:00,
2013-10-06 04:40:00,62.6,60.0,29.53,SSE,157,0.0,0.0,91,0.00,,,0.00,WUHU21623XXSP,2013-10-06 08:40:00,
2013-10-06 04:45:00,62.6,60.0,29.53,SSE,157,0.0,0.0,91,0.00,,,0.00,WUHU21623XXSP,2013-10-06 08:45:00,
2013-10-06 04:51:00,62.6,60.0,29.53,SSE,157,0.0,0.0,91,0.00,,,0.00,WUHU21623XXSP,2013-10-06 08:51:00,
2013-10-06 04:56:00,62.8,60.2,29.53,SSE,157,0.0,0.0,91,0.00,,,0.00,WUHU21623XXSP,2013-10-06 08:56:00,
2013-10-06 05:01:00,63.0,60.4,29.53,SSE,157,0.0,0.0,91,0.00,,,0.00,WUHU21623XXSP,2013-10-06 09:01:00,
2013-10-06 05:06:00,62.8,60.2,29.54,SSE,157,0.0,0.0,91,0.00,,,0.00,WUHU21623XXSP,2013-10-06 09:06:00,
2013-10-06 05:11:00,62.8,60.2,29.54,SSE,157,0.0,0.0,91,0.00,,,0.00,WUHU21623XXSP,2013-10-06 09:11:00,
2013-10-06 05:12:00,62.8,60.2,29.54,SSE,157,0.0,0.0,91,0.00,,,0.00,WUHU21623XXSP,2013-10-06 09:12:00,
2013-10-06 05:17:00,63.0,60.4,29.53,SSE,157,0.0,0.0,91,0.00,,,0.00,WUHU21623XXSP,2013-10-06 09:17:00,
2013-10-06 05:22:00,63.0,60.4,29.53,SSE,157,0.0,0.0,91,0.00,,,0.00,WUHU21623XXSP,2013-10-06 09:22:00,
2013-10-06 05:27:00,62.8,60.2,29.54,SSE,157,0.0,0.0,91,0.00,,,0.00,WUHU21623XXSP,2013-10-06 09:27:00,
2013-10-06 05:32:00,62.4,59.8,29.54,SSE,157,0.0,0.0,91,0.00,,,0.00,WUHU21623XXSP,2013-10-06 09:32:00,
2013-10-06 05:38:00,62.4,59.8,29.54,SSE,157,0.0,0.0,91,0.00,,,0.00,WUHU21623XXSP,2013-10-06 09:38:00,
2013-10-06 05:43:00,62.4,59.8,29.54,SSE,157,0.0,0.0,91,0.00,,,0.00,WUHU21623XXSP,2013-10-06 09:43:00,
2013-10-06 05:48:00,62.2,59.6,29.54,SSE,157,0.0,0.0,91,0.00,,,0.00,WUHU21623XXSP,2013-10-06 09:48:00,
2013-10-06 05:53:00,62.2,59.6,29.54,SSE,157,0.0,0.0,91,0.00,,,0.00,WUHU21623XXSP,2013-10-06 09:53:00,
2013-10-06 05:58:00,61.9,59.3,29.54,SSE,157,0.0,0.0,91,0.00,,,0.00,WUHU21623XXSP,2013-10-06 09:58:00,
2013-10-06 06:03:00,61.9,59.3,29.54,SSE,157,0.0,0.0,91,0.00,,,0.00,WUHU21623XXSP,2013-10-06 10:03:00,
2013-10-06 06:08:00,61.7,59.1,29.54,SSE,157,0.0,0.0,91,0.00,,,0.00,WUHU21623XXSP,2013-10-06 10:08:00,
2013-10-06 06:13:00,61.7,59.1,29.54,SSE,157,0.0,0.0,91,0.00,,,0.00,WUHU21623XXSP,2013-10-06 10:13:00,
2013-10-06 06:18:00,61.7,59.4,29.54,SSE,157,0.0,0.0,92,0.00,,,0.00,WUHU21623XXSP,2013-10-06 10:18:00,
2013-10-06 06:23:00,61.5,59.2,29.55,SSE,157,0.0,0.0,92,0.00,,,0.00,WUHU21623XXSP,2013-10-06 10:23:00,
2013-10-06 06:28:00,61.7,59.4,29.55,SSE,157,0.0,0.0,92,0.00,,,0.00,WUHU21623XXSP,2013-10-06 10:28:00,
2013-10-06 06:33:00,61.7,59.4,29.55,SSE,157,0.0,0.0,92,0.00,,,0.00,WUHU21623XXSP,2013-10-06 10:33:00,
2013-10-06 06:38:00,61.9,59.6,29.55,SSE,157,0.0,0.0,92,0.00,,,0.00,WUHU21623XXSP,2013-10-06 10:38:00,
2013-10-06 06:43:00,61.9,59.6,29.55,SSE,157,0.0,0.0,92,0.00,,,0.00,WUHU21623XXSP,2013-10-06 10:43:00,
2013-10-06 06:48:00,61.9,59.6,29.55,SSE,157,0.0,0.0,92,0.00,,,0.00,WUHU21623XXSP,2013-10-06 10:48:00,
2013-10-06 06:53:00,62.2,59.6,29.55,SSE,157,0.0,0.0,91,0.00,,,0.00,WUHU21623XXSP,2013-10-06 10:53:00,
2013-10-06 06:54:00,62.4,59.8,29.54,SSE,157,0.0,0.0,91,0.00,,,0.00,WUHU21623XXSP,2013-10-06 10:54:00,
2013-10-06 06:58:00,62.4,59.8,29.54,SSE,157,0.0,0.0,91,0.00,,,0.00,WUHU21623XXSP,2013-10-06 10:58:00,
2013-10-06 07:03:00,62.4,59.8,29.54,SSE,157,0.0,0.0,91,0.00,,,0.00,WUHU21623XXSP,2013-10-06 11:03:00,
2013-10-06 08:22:00,65.5,65.2,29.57,SSE,157,0.0,0.0,99,0.00,,,0.00,WUHU21623XXSP,2013-10-06 12:22:00,
2013-10-06 08:25:00,65.5,65.2,29.58,SSE,157,0.0,0.0,99,0.00,,,0.00,WUHU21623XXSP,2013-10-06 12:25:00,
2013-10-06 08:27:00,65.5,65.2,29.58,SSE,157,0.0,0.0,99,0.00,,,0.00,WUHU21623XXSP,2013-10-06 12:27:00,
2013-10-06 08:32:00,65.5,65.2,29.58,SSE,157,0.0,0.0,99,0.00,,,0.00,WUHU21623XXSP,2013-10-06 12:32:00,
2013-10-06 08:49:00,66.7,66.4,29.58,SSE,157,0.0,0.0,99,0.00,,,0.00,WUHU21623XXSP,2013-10-06 12:49:00,
2013-10-06 08:54:00,66.7,66.4,29.58,SSE,157,0.0,0.0,99,0.00,,,0.00,WUHU21623XXSP,2013-10-06 12:54:00,
2013-10-06 08:59:00,67.3,67.0,29.58,SSE,157,0.0,0.0,99,0.00,,,0.00,WUHU21623XXSP,2013-10-06 12:59:00,
2013-10-06 09:04:00,67.6,67.3,29.58,SSE,157,0.0,0.0,99,0.00,,,0.00,WUHU21623XXSP,2013-10-06 13:04:00,
2013-10-06 09:09:00,68.5,68.2,29.58,SSE,157,0.0,0.0,99,0.00,,,0.00,WUHU21623XXSP,2013-10-06 13:09:00,
2013-10-06 09:14:00,68.9,68.6,29.58,SSE,157,0.0,0.0,99,0.00,,,0.00,WUHU21623XXSP,2013-10-06 13:14:00,
2013-10-06 09:19:00,68.9,68.6,29.58,SSE,157,0.0,0.0,99,0.00,,,0.00,WUHU21623XXSP,2013-10-06 13:19:00,
2013-10-06 10:05:00,72.7,72.4,29.58,SE,135,0.0,0.0,99,0.00,,,0.00,WUHU21623XXSP,2013-10-06 14:05:00,
2013-10-06 10:10:00,72.7,72.4,29.58,SE,135,0.0,0.0,99,0.00,,,0.00,WUHU21623XXSP,2013-10-06 14:10:00,
2013-10-06 10:15:00,73.0,72.7,29.58,SE,135,0.0,0.0,99,0.00,,,0.00,WUHU21623XXSP,2013-10-06 14:15:00,
2013-10-06 10:19:00,73.2,72.9,29.58,SE,135,0.0,0.0,99,0.00,,,0.00,WUHU21623XXSP,2013-10-06 14:19:00,
2013-10-06 10:20:00,73.2,72.9,29.58,SE,135,0.0,0.0,99,0.00,,,0.00,WUHU21623XXSP,2013-10-06 14:20:00,
2013-10-06 10:25:00,73.2,72.9,29.58,SE,135,0.0,0.0,99,0.00,,,0.00,WUHU21623XXSP,2013-10-06 14:25:00,
2013-10-06 11:04:00,80.8,71.3,29.57,SE,135,0.0,0.0,73,0.00,,,0.00,WUHU21623XXSP,2013-10-06 15:04:00,
2013-10-06 11:09:00,80.8,70.9,29.57,South,180,0.0,0.0,72,0.00,,,0.00,WUHU21623XXSP,2013-10-06 15:09:00,
2013-10-06 11:14:00,81.9,71.1,29.57,SSE,157,0.0,0.0,70,0.00,,,0.00,WUHU21623XXSP,2013-10-06 15:14:00,
2013-10-06 11:19:00,83.3,71.6,29.56,SE,135,0.0,0.0,68,0.00,,,0.00,WUHU21623XXSP,2013-10-06 15:19:00,
2013-10-06 11:24:00,84.7,72.1,29.56,SE,135,0.0,0.0,66,0.00,,,0.00,WUHU21623XXSP,2013-10-06 15:24:00,
2013-10-06 11:30:00,86.4,72.7,29.56,SE,135,0.0,0.0,64,0.00,,,0.00,WUHU21623XXSP,2013-10-06 15:30:00,
2013-10-06 11:35:00,87.6,72.6,29.56,SE,135,0.0,0.0,61,0.00,,,0.00,WUHU21623XXSP,2013-10-06 15:35:00,
2013-10-06 11:40:00,88.0,71.9,29.56,SW,225,2.0,2.0,59,0.00,,,0.00,WUHU21623XXSP,2013-10-06 15:40:00,
2013-10-06 11:45:00,88.3,72.3,29.56,ESE,112,0.0,2.0,59,0.00,,,0.00,WUHU21623XXSP,2013-10-06 15:45:00,
2013-10-06 11:50:00,88.5,71.3,29.56,ESE,112,0.0,4.5,57,0.00,,,0.00,WUHU21623XXSP,2013-10-06 15:50:00,
2013-10-06 11:55:00,89.2,71.5,29.56,SSW,202,0.0,4.5,56,0.00,,,0.00,WUHU21623XXSP,2013-10-06 15:55:00,
2013-10-06 12:01:00,90.1,71.2,29.56,SE,135,0.0,0.0,54,0.00,,,0.00,WUHU21623XXSP,2013-10-06 16:01:00,
2013-10-06 12:07:00,89.6,70.7,29.56,SW,225,0.0,4.0,54,0.00,,,0.00,WUHU21623XXSP,2013-10-06 16:07:00,
2013-10-06 12:13:00,90.1,70.6,29.55,SE,135,0.0,0.2,53,0.00,,,0.00,WUHU21623XXSP,2013-10-06 16:13:00,
2013-10-06 12:19:00,91.2,69.3,29.55,SSW,202,0.0,0.2,49,0.00,,,0.00,WUHU21623XXSP,2013-10-06 16:19:00,
2013-10-06 12:24:00,92.1,70.2,29.55,SSW,202,0.0,3.4,49,0.00,,,0.00,WUHU21623XXSP,2013-10-06 16:24:00,
2013-10-06 12:30:00,92.8,70.8,29.55,SE,135,0.0,3.4,49,0.00,,,0.00,WUHU21623XXSP,2013-10-06 16:30:00,
2013-10-06 12:40:00,94.1,70.1,29.54,SE,135,0.0,1.3,46,0.00,,,0.00,WUHU21623XXSP,2013-10-06 16:40:00,
2013-10-06 12:45:00,95.0,70.3,29.54,South,180,0.0,0.0,45,0.00,,,0.00,WUHU21623XXSP,2013-10-06 16:45:00,
2013-10-06 12:50:00,96.1,70.6,29.54,NE,45,0.0,0.0,44,0.00,,,0.00,WUHU21623XXSP,2013-10-06 16:50:00,
2013-10-06 13:02:00,97.5,70.5,29.53,SE,135,0.0,0.0,42,0.00,,,0.00,WUHU21623XXSP,2013-10-06 17:02:00,
2013-10-06 13:08:00,98.2,69.8,29.53,SSE,157,0.0,0.0,40,0.00,,,0.00,WUHU21623XXSP,2013-10-06 17:08:00,
2013-10-06 13:13:00,98.4,70.0,29.53,SE,135,0.0,0.0,40,0.00,,,0.00,WUHU21623XXSP,2013-10-06 17:13:00,
2013-10-06 13:20:00,99.5,70.1,29.52,SSE,157,0.0,0.0,39,0.00,,,0.00,WUHU21623XXSP,2013-10-06 17:20:00,
2013-10-06 13:26:00,100.4,70.1,29.52,SW,225,0.0,0.0,38,0.00,,,0.00,WUHU21623XXSP,2013-10-06 17:26:00,
2013-10-06 13:32:00,100.2,70.0,29.52,SE,135,0.0,0.0,38,0.00,,,0.00,WUHU21623XXSP,2013-10-06 17:32:00,
2013-10-06 13:37:00,100.2,69.1,29.51,SSE,157,0.0,0.0,37,0.00,,,0.00,WUHU21623XXSP,2013-10-06 17:37:00,
2013-10-06 13:42:00,100.2,69.1,29.51,SW,225,0.2,0.2,37,0.00,,,0.00,WUHU21623XXSP,2013-10-06 17:42:00,
2013-10-06 13:47:00,99.7,68.6,29.51,SSE,157,0.0,0.2,37,0.00,,,0.00,WUHU21623XXSP,2013-10-06 17:47:00,
2013-10-06 13:52:00,100.2,69.1,29.51,WSW,247,0.0,1.8,37,0.00,,,0.00,WUHU21623XXSP,2013-10-06 17:52:00,
2013-10-06 14:01:00,102.0,69.9,29.50,WSW,247,0.0,0.0,36,0.00,,,0.00,WUHU21623XXSP,2013-10-06 18:01:00,
2013-10-06 14:07:00,102.6,69.5,29.50,WSW,247,0.0,0.0,35,0.00,,,0.00,WUHU21623XXSP,2013-10-06 18:07:00,
2013-10-06 14:13:00,102.2,70.0,29.50,WSW,247,0.0,0.0,36,0.00,,,0.00,WUHU21623XXSP,2013-10-06 18:13:00,
2013-10-06 14:21:00,102.0,69.0,29.49,WSW,247,0.0,0.0,35,0.00,,,0.00,WUHU21623XXSP,2013-10-06 18:21:00,
2013-10-06 14:28:00,98.8,67.8,29.49,WSW,247,0.0,0.0,37,0.00,,,0.00,WUHU21623XXSP,2013-10-06 18:28:00,
2013-10-06 14:37:00,96.6,67.6,29.48,SE,135,0.0,0.0,39,0.00,,,0.00,WUHU21623XXSP,2013-10-06 18:37:00,
2013-10-06 14:42:00,94.3,66.9,29.48,SSE,157,0.0,0.0,41,0.00,,,0.00,WUHU21623XXSP,2013-10-06 18:42:00,
2013-10-06 14:49:00,97.2,68.9,29.48,SE,135,0.0,0.0,40,0.00,,,0.00,WUHU21623XXSP,2013-10-06 18:49:00,
2013-10-06 14:58:00,97.9,68.7,29.47,SSW,202,0.0,0.0,39,0.00,,,0.00,WUHU21623XXSP,2013-10-06 18:58:00,
2013-10-06 15:03:00,95.7,68.2,29.47,SW,225,0.0,0.0,41,0.00,,,0.00,WUHU21623XXSP,2013-10-06 19:03:00,
2013-10-06 15:12:00,100.4,69.3,29.47,WSW,247,0.0,0.0,37,0.00,,,0.00,WUHU21623XXSP,2013-10-06 19:12:00,
2013-10-06 15:22:00,101.1,69.1,29.47,WSW,247,0.0,0.0,36,0.00,,,0.00,WUHU21623XXSP,2013-10-06 19:22:00,
2013-10-06 15:27:00,102.0,69.9,29.46,WSW,247,0.0,0.0,36,0.00,,,0.00,WUHU21623XXSP,2013-10-06 19:27:00,
2013-10-06 15:32:00,103.3,70.1,29.46,WSW,247,0.0,0.0,35,0.00,,,0.00,WUHU21623XXSP,2013-10-06 19:32:00,
2013-10-06 15:37:00,104.5,70.4,29.46,WSW,247,0.0,0.0,34,0.00,,,0.00,WUHU21623XXSP,2013-10-06 19:37:00,
2013-10-06 15:45:00,102.9,69.0,29.46,ENE,67,0.0,0.0,34,0.00,,,0.00,WUHU21623XXSP,2013-10-06 19:45:00,
2013-10-06 15:53:00,102.4,69.3,29.45,WSW,247,0.0,0.0,35,0.00,,,0.00,WUHU21623XXSP,2013-10-06 19:53:00,
2013-10-06 15:58:00,101.8,68.9,29.45,WSW,247,0.0,0.0,35,0.00,,,0.00,WUHU21623XXSP,2013-10-06 19:58:00,
2013-10-06 16:03:00,101.8,68.9,29.45,SSE,157,0.0,0.0,35,0.00,,,0.00,WUHU21623XXSP,2013-10-06 20:03:00,
2013-10-06 16:08:00,100.0,68.1,29.45,ENE,67,0.0,0.0,36,0.00,,,0.00,WUHU21623XXSP,2013-10-06 20:08:00,
2013-10-06 16:15:00,95.5,66.6,29.45,SSE,157,0.0,0.0,39,0.00,,,0.00,WUHU21623XXSP,2013-10-06 20:15:00,
2013-10-06 16:20:00,91.9,65.5,29.45,SW,225,0.0,0.0,42,0.00,,,0.00,WUHU21623XXSP,2013-10-06 20:20:00,
2013-10-06 16:25:00,89.8,65.5,29.44,SSE,157,0.0,0.0,45,0.00,,,0.00,WUHU21623XXSP,2013-10-06 20:25:00,
2013-10-06 16:31:00,88.0,65.2,29.44,SSE,157,0.0,0.0,47,0.00,,,0.00,WUHU21623XXSP,2013-10-06 20:31:00,
2013-10-06 16:36:00,87.1,65.0,29.44,SSE,157,0.0,0.0,48,0.00,,,0.00,WUHU21623XXSP,2013-10-06 20:36:00,
2013-10-06 16:44:00,86.0,64.7,29.44,SE,135,0.0,0.0,49,0.00,,,0.00,WUHU21623XXSP,2013-10-06 20:44:00,
2013-10-06 16:51:00,86.0,65.3,29.44,SW,225,0.0,0.0,50,0.00,,,0.00,WUHU21623XXSP,2013-10-06 20:51:00,
2013-10-06 16:56:00,85.8,65.1,29.44,SW,225,0.0,0.0,50,0.00,,,0.00,WUHU21623XXSP,2013-10-06 20:56:00,
2013-10-06 17:01:00,85.6,65.5,29.44,SSE,157,0.0,0.0,51,0.00,,,0.00,WUHU21623XXSP,2013-10-06 21:01:00,
2013-10-06 17:06:00,84.9,64.8,29.44,SW,225,0.0,0.0,51,0.00,,,0.00,WUHU21623XXSP,2013-10-06 21:06:00,
2013-10-06 17:11:00,84.6,65.0,29.44,ESE,112,0.0,0.0,52,0.00,,,0.00,WUHU21623XXSP,2013-10-06 21:11:00,
2013-10-06 17:16:00,84.4,64.9,29.44,East,90,0.0,0.0,52,0.00,,,0.00,WUHU21623XXSP,2013-10-06 21:16:00,
2013-10-06 17:21:00,83.8,64.9,29.43,East,90,0.0,0.0,53,0.00,,,0.00,WUHU21623XXSP,2013-10-06 21:21:00,
2013-10-06 17:27:00,83.3,64.9,29.44,SE,135,0.0,0.0,54,0.00,,,0.00,WUHU21623XXSP,2013-10-06 21:27:00,
2013-10-06 17:32:00,83.1,64.7,29.44,SSE,157,0.0,0.0,54,0.00,,,0.00,WUHU21623XXSP,2013-10-06 21:32:00,
2013-10-06 17:37:00,82.9,65.0,29.43,SSE,157,0.0,0.0,55,0.00,,,0.00,WUHU21623XXSP,2013-10-06 21:37:00,
2013-10-06 17:42:00,82.8,64.8,29.43,SW,225,0.0,0.0,55,0.00,,,0.00,WUHU21623XXSP,2013-10-06 21:42:00,
2013-10-06 17:54:00,82.2,64.8,29.43,ESE,112,0.0,0.0,56,0.00,,,0.00,WUHU21623XXSP,2013-10-06 21:54:00,
2013-10-06 17:59:00,82.2,64.8,29.43,South,180,0.0,0.0,56,0.00,,,0.00,WUHU21623XXSP,2013-10-06 21:59:00,
2013-10-06 18:06:00,82.2,65.4,29.43,South,180,0.0,0.0,57,0.00,,,0.00,WUHU21623XXSP,2013-10-06 22:06:00,
2013-10-06 18:11:00,81.7,64.9,29.43,South,180,0.0,0.0,57,0.00,,,0.00,WUHU21623XXSP,2013-10-06 22:11:00,
2013-10-06 18:16:00,81.3,64.6,29.44,South,180,0.0,0.0,57,0.00,,,0.00,WUHU21623XXSP,2013-10-06 22:16:00,
2013-10-06 18:33:00,79.9,64.8,29.44,South,180,0.0,0.0,60,0.00,,,0.00,WUHU21623XXSP,2013-10-06 22:33:00,
2013-10-06 18:40:00,79.5,64.9,29.43,SSE,157,0.0,0.0,61,0.00,,,0.00,WUHU21623XXSP,2013-10-06 22:40:00,
2013-10-06 18:45:00,79.2,65.0,29.43,SSE,157,0.0,0.0,62,0.00,,,0.00,WUHU21623XXSP,2013-10-06 22:45:00,
2013-10-06 18:51:00,78.6,65.0,29.43,SSE,157,0.0,0.0,63,0.00,,,0.00,WUHU21623XXSP,2013-10-06 22:51:00,
2013-10-06 18:57:00,78.4,64.8,29.43,SSE,157,0.0,0.0,63,0.00,,,0.00,WUHU21623XXSP,2013-10-06 22:57:00,
2013-10-06 19:07:00,77.5,63.9,29.44,SSE,157,0.0,0.0,63,0.00,,,0.00,WUHU21623XXSP,2013-10-06 23:07:00,
2013-10-06 19:12:00,77.2,64.0,29.44,SSE,157,0.0,0.0,64,0.00,,,0.00,WUHU21623XXSP,2013-10-06 23:12:00,
2013-10-06 19:17:00,76.8,64.1,29.44,SSE,157,0.0,0.0,65,0.00,,,0.00,WUHU21623XXSP,2013-10-06 23:17:00,
2013-10-06 19:26:00,76.8,64.6,29.43,SSE,157,0.0,0.0,66,0.00,,,0.00,WUHU21623XXSP,2013-10-06 23:26:00,
2013-10-06 19:32:00,76.8,65.0,29.44,South,180,0.0,0.0,67,0.00,,,0.00,WUHU21623XXSP,2013-10-06 23:32:00,
2013-10-06 19:37:00,76.6,64.8,29.43,South,180,0.0,0.0,67,0.00,,,0.00,WUHU21623XXSP,2013-10-06 23:37:00,
2013-10-06 19:42:00,76.6,64.8,29.43,South,180,0.0,0.0,67,0.00,,,0.00,WUHU21623XXSP,2013-10-06 23:42:00,
2013-10-06 19:47:00,76.5,65.1,29.44,South,180,0.0,0.0,68,0.00,,,0.00,WUHU21623XXSP,2013-10-06 23:47:00,
2013-10-06 19:52:00,76.3,64.9,29.44,South,180,0.0,0.0,68,0.00,,,0.00,WUHU21623XXSP,2013-10-06 23:52:00,
2013-10-06 19:59:00,76.3,64.9,29.44,South,180,0.0,0.0,68,0.00,,,0.00,WUHU21623XXSP,2013-10-06 23:59:00,
2013-10-06 20:05:00,76.5,65.1,29.44,South,180,0.0,0.0,68,0.00,,,0.00,WUHU21623XXSP,2013-10-07 00:05:00,
2013-10-06 20:10:00,76.6,65.8,29.45,SSW,202,0.0,0.0,69,0.00,,,0.00,WUHU21623XXSP,2013-10-07 00:10:00,
2013-10-06 20:15:00,76.8,66.4,29.46,East,90,1.6,1.6,70,0.00,,,0.00,WUHU21623XXSP,2013-10-07 00:15:00,
2013-10-06 20:20:00,76.1,66.4,29.46,SW,225,0.0,1.6,72,0.00,,,0.00,WUHU21623XXSP,2013-10-07 00:20:00,
2013-10-06 20:28:00,72.7,65.4,29.46,SSE,157,0.0,0.0,78,0.00,,,0.00,WUHU21623XXSP,2013-10-07 00:28:00,
2013-10-06 20:34:00,71.8,64.9,29.45,SSE,157,0.0,0.0,79,0.00,,,0.00,WUHU21623XXSP,2013-10-07 00:34:00,
2013-10-06 20:40:00,71.2,65.4,29.45,SSE,157,0.0,0.0,82,0.00,,,0.00,WUHU21623XXSP,2013-10-07 00:40:00,
2013-10-06 20:45:00,70.7,65.2,29.44,SSE,157,0.0,0.0,83,0.00,,,0.00,WUHU21623XXSP,2013-10-07 00:45:00,
2013-10-06 20:50:00,70.5,65.4,29.44,SSE,157,0.0,0.0,84,0.00,,,0.00,WUHU21623XXSP,2013-10-07 00:50:00,
2013-10-06 20:55:00,70.5,65.4,29.44,SSE,157,0.0,0.0,84,0.00,,,0.00,WUHU21623XXSP,2013-10-07 00:55:00,
2013-10-06 21:00:00,70.5,65.8,29.44,SSE,157,0.0,0.0,85,0.00,,,0.00,WUHU21623XXSP,2013-10-07 01:00:00,
2013-10-06 21:06:00,70.5,66.1,29.44,SSE,157,0.0,0.0,86,0.00,,,0.00,WUHU21623XXSP,2013-10-07 01:06:00,
2013-10-06 21:11:00,70.3,65.9,29.44,SSE,157,0.0,0.0,86,0.00,,,0.00,WUHU21623XXSP,2013-10-07 01:11:00,
2013-10-06 21:16:00,70.3,65.9,29.44,SSE,157,0.0,0.0,86,0.00,,,0.00,WUHU21623XXSP,2013-10-07 01:16:00,
2013-10-06 21:21:00,70.3,66.3,29.44,SSE,157,0.0,0.0,87,0.00,,,0.00,WUHU21623XXSP,2013-10-07 01:21:00,
2013-10-06 21:26:00,70.3,66.3,29.44,SSE,157,0.0,0.0,87,0.00,,,0.00,WUHU21623XXSP,2013-10-07 01:26:00,
2013-10-06 21:31:00,70.3,66.6,29.44,SSE,157,0.0,0.0,88,0.00,,,0.00,WUHU21623XXSP,2013-10-07 01:31:00,
2013-10-06 21:36:00,70.3,66.6,29.44,SSE,157,0.0,0.0,88,0.00,,,0.00,WUHU21623XXSP,2013-10-07 01:36:00,
2013-10-06 21:41:00,70.3,66.6,29.45,SSE,157,0.0,0.0,88,0.00,,,0.00,WUHU21623XXSP,2013-10-07 01:41:00,
2013-10-06 21:46:00,70.5,67.1,29.44,SSE,157,0.0,0.0,89,0.00,,,0.00,WUHU21623XXSP,2013-10-07 01:46:00,
2013-10-06 21:51:00,70.5,67.1,29.44,SSE,157,0.0,0.0,89,0.00,,,0.00,WUHU21623XXSP,2013-10-07 01:51:00,
2013-10-06 21:56:00,70.5,67.1,29.44,SSE,157,0.0,0.0,89,0.00,,,0.00,WUHU21623XXSP,2013-10-07 01:56:00,
2013-10-06 22:01:00,70.5,67.1,29.44,SSE,157,0.0,0.0,89,0.00,,,0.00,WUHU21623XXSP,2013-10-07 02:01:00,
2013-10-06 22:06:00,70.5,67.1,29.44,SSE,157,0.0,0.0,89,0.00,,,0.00,WUHU21623XXSP,2013-10-07 02:06:00,
2013-10-06 22:11:00,70.3,66.9,29.44,SSE,157,0.0,0.0,89,0.00,,,0.00,WUHU21623XXSP,2013-10-07 02:11:00,
2013-10-06 22:16:00,70.3,67.3,29.44,SSE,157,0.0,0.0,90,0.00,,,0.00,WUHU21623XXSP,2013-10-07 02:16:00,
2013-10-06 22:21:00,70.3,67.3,29.44,SSE,157,0.0,0.0,90,0.00,,,0.00,WUHU21623XXSP,2013-10-07 02:21:00,
2013-10-06 22:26:00,70.2,67.1,29.44,SSE,157,0.0,0.0,90,0.00,,,0.00,WUHU21623XXSP,2013-10-07 02:26:00,
2013-10-06 22:31:00,70.3,67.3,29.44,SSE,157,0.0,0.0,90,0.00,,,0.00,WUHU21623XXSP,2013-10-07 02:31:00,
2013-10-06 22:36:00,70.3,67.3,29.44,SSE,157,0.0,0.0,90,0.00,,,0.00,WUHU21623XXSP,2013-10-07 02:36:00,
2013-10-06 22:41:00,70.5,67.5,29.44,SSE,157,0.0,0.0,90,0.00,,,0.00,WUHU21623XXSP,2013-10-07 02:41:00,
2013-10-06 22:46:00,70.5,67.5,29.43,SSE,157,0.0,0.0,90,0.00,,,0.00,WUHU21623XXSP,2013-10-07 02:46:00,
2013-10-06 22:51:00,70.5,67.5,29.43,SSE,157,0.0,0.0,90,0.00,,,0.00,WUHU21623XXSP,2013-10-07 02:51:00,
2013-10-06 23:01:00,70.7,67.6,29.43,SSE,157,0.0,0.0,90,0.00,,,0.00,WUHU21623XXSP,2013-10-07 03:01:00,
2013-10-06 23:06:00,70.7,67.6,29.43,SSE,157,0.0,0.0,90,0.00,,,0.00,WUHU21623XXSP,2013-10-07 03:06:00,
2013-10-06 23:11:00,70.9,67.8,29.43,SSE,157,0.0,0.0,90,0.00,,,0.00,WUHU21623XXSP,2013-10-07 03:11:00,
2013-10-06 23:17:00,70.9,67.8,29.43,SSE,157,0.0,0.0,90,0.00,,,0.00,WUHU21623XXSP,2013-10-07 03:17:00,
2013-10-06 23:22:00,71.2,68.2,29.44,SSE,157,0.0,0.0,90,0.00,,,0.00,WUHU21623XXSP,2013-10-07 03:22:00,
2013-10-06 23:30:00,71.2,68.5,29.43,SSW,202,0.0,0.0,91,0.00,,,0.00,WUHU21623XXSP,2013-10-07 03:30:00,
2013-10-06 23:37:00,71.2,68.5,29.43,SSW,202,0.0,0.0,91,0.00,,,0.00,WUHU21623XXSP,2013-10-07 03:37:00,
2013-10-06 23:48:00,71.4,68.7,29.43,SSE,157,0.0,0.0,91,0.00,,,0.00,WUHU21623XXSP,2013-10-07 03:48:00,
2013-10-06 23:55:00,71.4,68.7,29.42,South,180,0.0,0.0,91,0.00,,,0.00,WUHU21623XXSP,2013-10-07 03:55:00,